Time,TemperatureF,DewpointF,PressureIn,WindDirection,WindDirectionDegrees,WindSpeedMPH,WindSpeedGustMPH,Humidity,HourlyPrecipIn,Conditions,Clouds,dailyrainin,SoftwareType,DateUTC
2013-12-10 00:22:00,18.0,13.0,-100.00,WNW,293,7.0,13.0,81,0.00,,,0.00,,2013-12-10 05:22:00,
2013-12-10 00:53:00,17.0,12.0,-100.00,West,270,9.0,10.0,81,0.00,,,0.00,,2013-12-10 05:53:00,
2013-12-10 01:12:00,17.0,12.0,-100.00,West,270,8.0,15.0,80,0.00,,,0.00,,2013-12-10 06:12:00,
2013-12-10 01:22:00,17.0,12.0,-100.00,West,270,8.0,15.0,80,0.00,,,0.00,,2013-12-10 06:22:00,
2013-12-10 01:53:00,15.0,10.0,-100.00,West,270,10.0,14.0,80,0.00,,,0.00,,2013-12-10 06:53:00,
2013-12-10 02:22:00,13.0,8.0,-100.00,West,270,6.0,9.0,81,0.00,,,0.00,,2013-12-10 07:22:00,
2013-12-10 02:52:00,13.0,9.0,-100.00,SSW,203,0.0,6.0,83,0.00,,,0.00,,2013-12-10 07:52:00,
2013-12-10 03:22:00,12.0,8.0,-100.00,WSW,248,5.0,6.0,85,0.00,,,0.00,,2013-12-10 08:22:00,
2013-12-10 03:52:00,11.0,8.0,-100.00,SW,225,5.0,6.0,87,0.00,,,0.00,,2013-12-10 08:52:00,
2013-12-10 04:22:00,12.0,9.0,-100.00,WSW,248,6.0,8.0,88,0.00,,,0.00,,2013-12-10 09:22:00,
2013-12-10 04:54:00,11.0,8.0,-100.00,WSW,248,0.0,0.0,89,0.00,,,0.00,,2013-12-10 09:54:00,
2013-12-10 05:22:00,12.0,9.0,-100.00,West,270,5.0,8.0,89,0.00,,,0.00,,2013-12-10 10:22:00,
2013-12-10 05:53:00,11.0,9.0,-100.00,WSW,248,0.0,0.0,90,0.00,,,0.00,,2013-12-10 10:53:00,
2013-12-10 06:22:00,11.0,9.0,-100.00,SW,225,0.0,0.0,91,0.00,,,0.00,,2013-12-10 11:22:00,
2013-12-10 06:53:00,10.0,8.0,-100.00,SW,225,0.0,0.0,93,0.00,,,0.00,,2013-12-10 11:53:00,
2013-12-10 07:22:00,10.0,9.0,-100.00,SW,225,0.0,0.0,94,0.00,,,0.00,,2013-12-10 12:22:00,
2013-12-10 07:52:00,9.0,8.0,-100.00,SW,225,0.0,0.0,96,0.00,,,0.00,,2013-12-10 12:52:00,
2013-12-10 08:22:00,10.0,9.0,-100.00,SSE,158,0.0,0.0,96,0.00,,,0.00,,2013-12-10 13:22:00,
2013-12-10 08:52:00,11.0,10.0,-100.00,SSW,203,5.0,6.0,94,0.00,,,0.00,,2013-12-10 13:52:00,
2013-12-10 09:22:00,12.0,10.0,-100.00,South,180,6.0,9.0,91,0.00,,,0.00,,2013-12-10 14:22:00,
2013-12-10 09:52:00,12.0,10.0,-100.00,SSW,203,6.0,12.0,91,0.00,,,0.00,,2013-12-10 14:52:00,
2013-12-10 10:22:00,13.0,11.0,-100.00,SSW,203,7.0,12.0,91,0.00,,,0.00,,2013-12-10 15:22:00,
2013-12-10 10:53:00,13.0,10.0,-100.00,SW,225,6.0,13.0,89,0.00,,,0.00,,2013-12-10 15:53:00,
2013-12-10 11:23:00,14.0,10.0,-100.00,SSW,203,9.0,15.0,84,0.00,,,0.00,,2013-12-10 16:23:00,
2013-12-10 11:52:00,15.0,9.0,-100.00,SW,225,10.0,18.0,77,0.00,,,0.00,,2013-12-10 16:52:00,
2013-12-10 12:22:00,16.0,9.0,-100.00,South,180,7.0,10.0,74,0.00,,,0.00,,2013-12-10 17:22:00,
2013-12-10 12:52:00,17.0,9.0,-100.00,South,180,2.0,6.0,69,0.00,,,0.00,,2013-12-10 17:52:00,
2013-12-10 13:22:00,18.0,7.0,-100.00,SSW,203,10.0,20.0,62,0.00,,,0.00,,2013-12-10 18:22:00,
2013-12-10 13:53:00,19.0,7.0,-100.00,SSW,203,12.0,15.0,59,0.00,,,0.00,,2013-12-10 18:53:00,
2013-12-10 14:22:00,19.0,7.0,-100.00,SW,225,15.0,21.0,60,0.00,,,0.00,,2013-12-10 19:22:00,
2013-12-10 14:52:00,19.0,9.0,-100.00,SSW,203,14.0,18.0,64,0.00,,,0.00,,2013-12-10 19:52:00,
2013-12-10 15:22:00,19.0,10.0,-100.00,SW,225,8.0,13.0,68,0.00,,,0.00,,2013-12-10 20:22:00,
2013-12-10 15:52:00,19.0,12.0,-100.00,SW,225,12.0,17.0,73,0.00,,,0.00,,2013-12-10 20:52:00,
2013-12-10 16:22:00,19.0,13.0,-100.00,WSW,248,13.0,15.0,78,0.00,,,0.00,,2013-12-10 21:22:00,
2013-12-10 16:54:00,20.0,15.0,-100.00,WSW,248,10.0,17.0,82,0.00,,,0.00,,2013-12-10 21:54:00,
2013-12-10 17:23:00,20.0,16.0,-100.00,SSW,203,13.0,20.0,84,0.00,,,0.00,,2013-12-10 22:23:00,
2013-12-10 17:53:00,20.0,17.0,-100.00,SW,225,14.0,22.0,87,0.00,,,0.00,,2013-12-10 22:53:00,
2013-12-10 18:22:00,20.0,18.0,-100.00,WSW,248,8.0,9.0,90,0.00,,,0.00,,2013-12-10 23:22:00,
2013-12-10 18:53:00,19.0,17.0,-100.00,WSW,248,9.0,13.0,93,0.00,,,0.00,,2013-12-10 23:53:00,
2013-12-10 19:22:00,20.0,19.0,-100.00,WSW,248,8.0,12.0,94,0.00,,,0.00,,2013-12-11 00:22:00,
2013-12-10 19:52:00,20.0,18.0,-100.00,West,270,12.0,17.0,92,0.00,,,0.00,,2013-12-11 00:52:00,
2013-12-10 20:22:00,21.0,19.0,-100.00,West,270,9.0,12.0,92,0.00,,,0.00,,2013-12-11 01:22:00,
2013-12-10 20:52:00,20.0,18.0,-100.00,West,270,8.0,10.0,92,0.00,,,0.00,,2013-12-11 01:52:00,
2013-12-10 21:22:00,19.0,17.0,-100.00,WSW,248,8.0,14.0,92,0.00,,,0.00,,2013-12-11 02:22:00,
2013-12-10 21:52:00,20.0,18.0,-100.00,West,270,8.0,12.0,92,0.00,,,0.00,,2013-12-11 02:52:00,
2013-12-10 22:22:00,19.0,17.0,-100.00,West,270,6.0,9.0,91,0.00,,,0.00,,2013-12-11 03:22:00,
2013-12-10 22:54:00,19.0,17.0,-100.00,West,270,9.0,13.0,91,0.00,,,0.00,,2013-12-11 03:54:00,
2013-12-10 23:23:00,19.0,17.0,-100.00,West,270,8.0,10.0,92,0.00,,,0.00,,2013-12-11 04:23:00,
2013-12-10 23:52:00,19.0,17.0,-100.00,West,270,3.0,7.0,91,0.00,,,0.00,,2013-12-11 04:52:00,